When you browse on this site, cookies collect data to enhance your experience and personalize the content and advertising you see.
Visit our Privacy Policy to learn more. By continuing to use the site, you agree to this use of cookies and data.
  • In United Kingdom
  • List of Countries
  • For 7 days
  • Water Temperature
  • Weather Map
  • Weather Widgets
  • user-avatar
    Login

    Hourly Weather Gölcük

    Today, 22 August, Thursday

    Time Temperature Precipitation Wind Pressure Humidity
    00:00 +23°C° 0 mm 1 mps 760 mmHg 93%
    01:00 +23°C° 0 mm 1 mps 759 mmHg 93%
    02:00 +23°C° 0 mm 2 mps 759 mmHg 94%
    03:00 +23°C° 0 mm 2 mps 759 mmHg 94%
    04:00 +23°C° 0 mm 2 mps 759 mmHg 94%
    05:00 +23°C° 0 mm 2 mps 759 mmHg 94%
    06:00 +24°C° 0 mm 2 mps 759 mmHg 89%
    07:00 +25°C° 0 mm 2 mps 759 mmHg 84%
    08:00 +27°C° 0 mm 2 mps 760 mmHg 79%
    09:00 +28°C° 0 mm 3 mps 759 mmHg 73%
    10:00 +29°C° 0 mm 3 mps 759 mmHg 67%
    11:00 +31°C° 0 mm 3 mps 759 mmHg 61%
    12:00 +31°C° 0.2 mm 3 mps 759 mmHg 59%
    13:00 +33°C° 0.2 mm 4 mps 759 mmHg 57%
    14:00 +33°C° 0.2 mm 4 mps 759 mmHg 55%
    15:00 +32°C° 0 mm 4 mps 759 mmHg 58%
    16:00 +32°C° 0 mm 4 mps 759 mmHg 62%
    17:00 +30°C° 0 mm 5 mps 759 mmHg 65%
    18:00 +28°C° 0 mm 4 mps 759 mmHg 74%
    19:00 +26°C° 0 mm 3 mps 760 mmHg 83%
    20:00 +25°C° 0 mm 2 mps 760 mmHg 92%
    21:00 +24°C° 0 mm 1 mps 760 mmHg 92%
    22:00 +24°C° 0 mm 1 mps 760 mmHg 92%
    23:00 +24°C° 0 mm 1 mps 760 mmHg 92%

    Tomorrow, 23 August, Friday

    Time Temperature Precipitation Wind Pressure Humidity
    00:00 +21°C° 0 mm 0 mps 760 mmHg 92%
    01:00 +21°C° 0 mm 0 mps 760 mmHg 92%
    02:00 +21°C° 0 mm 0 mps 760 mmHg 93%
    03:00 +23°C° 0 mm 1 mps 760 mmHg 93%
    04:00 +23°C° 0 mm 1 mps 760 mmHg 93%
    05:00 +23°C° 0 mm 1 mps 759 mmHg 93%
    06:00 +24°C° 0 mm 1 mps 759 mmHg 86%
    07:00 +26°C° 0 mm 1 mps 760 mmHg 80%
    08:00 +27°C° 0 mm 1 mps 760 mmHg 74%
    09:00 +29°C° 0 mm 2 mps 760 mmHg 67%
    10:00 +31°C° 0 mm 2 mps 760 mmHg 59%
    11:00 +32°C° 0 mm 2 mps 760 mmHg 52%
    12:00 +34°C° 0 mm 3 mps 759 mmHg 50%
    13:00 +34°C° 0 mm 4 mps 759 mmHg 49%
    14:00 +34°C° 0 mm 4 mps 759 mmHg 47%
    15:00 +33°C° 0 mm 4 mps 759 mmHg 51%
    16:00 +32°C° 0 mm 4 mps 759 mmHg 55%
    17:00 +30°C° 0 mm 4 mps 758 mmHg 59%
    18:00 +28°C° 0 mm 3 mps 759 mmHg 68%
    19:00 +26°C° 0 mm 3 mps 759 mmHg 77%
    20:00 +25°C° 0 mm 2 mps 760 mmHg 86%
    21:00 +24°C° 0 mm 2 mps 760 mmHg 86%
    22:00 +24°C° 0 mm 2 mps 760 mmHg 86%
    23:00 +24°C° 0 mm 1 mps 760 mmHg 85%

    Day after tomorrow, 24 August, Saturday

    Time Temperature Precipitation Wind Pressure Humidity
    00:00 +23°C° 0 mm 1 mps 760 mmHg 84%
    01:00 +23°C° 0 mm 1 mps 760 mmHg 83%
    02:00 +23°C° 0 mm 1 mps 759 mmHg 82%
    03:00 +23°C° 0 mm 1 mps 759 mmHg 83%
    04:00 +23°C° 0 mm 1 mps 759 mmHg 83%
    05:00 +23°C° 0 mm 1 mps 759 mmHg 84%
    06:00 +24°C° 0 mm 1 mps 760 mmHg 77%
    07:00 +26°C° 0 mm 1 mps 760 mmHg 69%
    08:00 +28°C° 0 mm 2 mps 760 mmHg 62%
    09:00 +30°C° 0 mm 2 mps 760 mmHg 56%
    10:00 +31°C° 0 mm 3 mps 760 mmHg 49%
    11:00 +34°C° 0 mm 4 mps 760 mmHg 42%
    12:00 +34°C° 0 mm 5 mps 759 mmHg 42%
    13:00 +35°C° 0 mm 5 mps 759 mmHg 42%
    14:00 +35°C° 0 mm 6 mps 759 mmHg 42%
    15:00 +34°C° 0 mm 6 mps 759 mmHg 47%
    16:00 +33°C° 0 mm 6 mps 758 mmHg 52%
    17:00 +32°C° 0 mm 6 mps 758 mmHg 56%
    18:00 +29°C° 0 mm 5 mps 759 mmHg 65%
    19:00 +27°C° 0 mm 4 mps 759 mmHg 75%
    20:00 +25°C° 0 mm 3 mps 759 mmHg 84%
    21:00 +24°C° 0 mm 2 mps 759 mmHg 85%
    22:00 +24°C° 0 mm 2 mps 759 mmHg 85%
    23:00 +24°C° 0 mm 2 mps 759 mmHg 86%

    25 August, Sunday

    Time Temperature Precipitation Wind Pressure Humidity
    00:00 +23°C° 0 mm 2 mps 759 mmHg 87%
    01:00 +23°C° 0 mm 1 mps 759 mmHg 88%
    02:00 +23°C° 0 mm 1 mps 759 mmHg 89%
    03:00 +23°C° 0 mm 1 mps 759 mmHg 90%
    04:00 +23°C° 0 mm 1 mps 759 mmHg 90%
    05:00 +23°C° 0 mm 1 mps 759 mmHg 91%
    06:00 +24°C° 0 mm 1 mps 759 mmHg 85%
    07:00 +25°C° 0 mm 1 mps 759 mmHg 79%
    08:00 +26°C° 0 mm 1 mps 759 mmHg 73%
    09:00 +28°C° 0 mm 2 mps 758 mmHg 66%
    10:00 +30°C° 0 mm 2 mps 758 mmHg 58%
    11:00 +32°C° 0 mm 2 mps 758 mmHg 51%
    12:00 +33°C° 0 mm 3 mps 758 mmHg 49%
    13:00 +34°C° 0 mm 4 mps 757 mmHg 47%
    14:00 +34°C° 0 mm 6 mps 757 mmHg 45%
    15:00 +33°C° 0 mm 5 mps 757 mmHg 50%
    16:00 +32°C° 0 mm 5 mps 757 mmHg 55%
    17:00 +30°C° 0 mm 5 mps 757 mmHg 60%
    18:00 +28°C° 0 mm 4 mps 757 mmHg 69%
    19:00 +26°C° 0 mm 3 mps 757 mmHg 79%
    20:00 +24°C° 0 mm 2 mps 758 mmHg 88%
    21:00 +24°C° 0 mm 2 mps 758 mmHg 89%
    22:00 +24°C° 0 mm 2 mps 758 mmHg 89%
    23:00 +24°C° 0 mm 1 mps 758 mmHg 90%

    26 August, Monday

    Time Temperature Precipitation Wind Pressure Humidity
    00:00 +24°C° 0 mm 1 mps 758 mmHg 90%
    01:00 +23°C° 0 mm 1 mps 758 mmHg 90%
    02:00 +23°C° 0 mm 1 mps 758 mmHg 91%
    03:00 +23°C° 0 mm 1 mps 758 mmHg 90%
    04:00 +23°C° 0 mm 1 mps 758 mmHg 90%
    05:00 +23°C° 0 mm 1 mps 758 mmHg 90%
    06:00 +24°C° 0 mm 1 mps 758 mmHg 83%
    07:00 +26°C° 0 mm 1 mps 758 mmHg 75%
    08:00 +28°C° 0 mm 1 mps 758 mmHg 68%
    09:00 +29°C° 0 mm 2 mps 759 mmHg 60%
    10:00 +31°C° 0 mm 3 mps 759 mmHg 52%
    11:00 +34°C° 0 mm 4 mps 759 mmHg 44%
    12:00 +34°C° 0 mm 5 mps 758 mmHg 43%
    13:00 +34°C° 0 mm 6 mps 758 mmHg 41%
    14:00 +35°C° 0 mm 7 mps 758 mmHg 40%
    15:00 +34°C° 0 mm 7 mps 758 mmHg 44%
    16:00 +33°C° 0 mm 7 mps 758 mmHg 48%
    17:00 +30°C° 0 mm 6 mps 758 mmHg 52%
    18:00 +29°C° 0 mm 5 mps 758 mmHg 59%
    19:00 +27°C° 0 mm 5 mps 758 mmHg 65%
    20:00 +25°C° 0 mm 4 mps 758 mmHg 71%
    21:00 +25°C° 0 mm 3 mps 759 mmHg 73%
    22:00 +24°C° 0 mm 3 mps 759 mmHg 74%
    23:00 +24°C° 0 mm 3 mps 759 mmHg 76%

    27 August, Tuesday

    Time Temperature Precipitation Wind Pressure Humidity
    00:00 +22°C° 0 mm 3 mps 759 mmHg 79%
    01:00 +23°C° 0 mm 2 mps 759 mmHg 82%
    02:00 +23°C° 0 mm 2 mps 758 mmHg 84%
    03:00 +21°C° 0 mm 2 mps 759 mmHg 85%
    04:00 +21°C° 0 mm 2 mps 759 mmHg 87%
    05:00 +21°C° 0 mm 2 mps 759 mmHg 88%
    06:00 +24°C° 0 mm 3 mps 759 mmHg 80%
    07:00 +25°C° 0 mm 3 mps 759 mmHg 72%
    08:00 +27°C° 0 mm 3 mps 759 mmHg 65%
    09:00 +28°C° 0 mm 4 mps 759 mmHg 58%
    10:00 +30°C° 0 mm 4 mps 759 mmHg 51%
    11:00 +33°C° 0 mm 4 mps 759 mmHg 44%
    12:00 +33°C° 0 mm 5 mps 759 mmHg 43%
    13:00 +33°C° 0 mm 6 mps 758 mmHg 42%
    14:00 +34°C° 0 mm 6 mps 758 mmHg 40%
    15:00 +33°C° 0 mm 6 mps 758 mmHg 44%
    16:00 +32°C° 0 mm 6 mps 758 mmHg 48%
    17:00 +29°C° 0 mm 6 mps 758 mmHg 53%
    18:00 +27°C° 0 mm 5 mps 758 mmHg 62%
    19:00 +25°C° 0 mm 4 mps 758 mmHg 72%
    20:00 +22°C° 0 mm 3 mps 759 mmHg 82%
    21:00 +23°C° 0 mm 2 mps 759 mmHg 83%
    22:00 +21°C° 0 mm 2 mps 759 mmHg 85%
    23:00 +21°C° 0 mm 2 mps 759 mmHg 86%
    Show more